• In Lithuania
  • List of Countries
  • For 7 days
  • Water Temperature
  • Satellite Maps
  • Weather Map
  • Weather Widgets
  • user-avatar
    Login

    Hourly Weather Klagenfurt

    Today, 20 August, Sunday

    Time Temperature Precipitation Wind Pressure Humidity
    00:00 +14°C° 2.5 mm 2 mps 692 mmHg 96%
    01:00 +14°C° 0 mm 2 mps 692 mmHg 95%
    02:00 +13°C° 0.5 mm 2 mps 692 mmHg 95%
    03:00 +13°C° 0.5 mm 2 mps 691 mmHg 95%
    04:00 +12°C° 0.5 mm 2 mps 691 mmHg 95%
    05:00 +12°C° 0 mm 2 mps 692 mmHg 94%
    06:00 +13°C° 0 mm 1 mps 692 mmHg 92%
    07:00 +13°C° 0 mm 1 mps 692 mmHg 90%
    08:00 +15°C° 0 mm 1 mps 693 mmHg 79%
    09:00 +16°C° 0 mm 2 mps 693 mmHg 67%
    10:00 +18°C° 0 mm 2 mps 693 mmHg 55%
    11:00 +19°C° 0.1 mm 2 mps 694 mmHg 51%
    12:00 +20°C° 0.1 mm 2 mps 694 mmHg 47%
    13:00 +21°C° 0.1 mm 2 mps 694 mmHg 43%
    14:00 +21°C° 0.1 mm 2 mps 694 mmHg 45%
    15:00 +21°C° 0.1 mm 2 mps 694 mmHg 46%
    16:00 +21°C° 0.1 mm 2 mps 694 mmHg 47%
    17:00 +19°C° 0 mm 2 mps 694 mmHg 54%
    18:00 +18°C° 0 mm 1 mps 693 mmHg 62%
    19:00 +15°C° 0 mm 1 mps 693 mmHg 70%
    20:00 +14°C° 0 mm 1 mps 693 mmHg 72%
    21:00 +13°C° 0 mm 1 mps 694 mmHg 75%
    22:00 +12°C° 0 mm 1 mps 694 mmHg 77%
    23:00 +11°C° 0 mm 1 mps 694 mmHg 79%

    Tomorrow, 21 August, Monday

    Time Temperature Precipitation Wind Pressure Humidity
    00:00 +11°C° 0 mm 1 mps 694 mmHg 80%
    01:00 +10°C° 0 mm 1 mps 694 mmHg 82%
    02:00 +10°C° 0 mm 1 mps 694 mmHg 82%
    03:00 +9°C° 0 mm 1 mps 693 mmHg 83%
    04:00 +9°C° 0 mm 1 mps 693 mmHg 84%
    05:00 +10°C° 0 mm 1 mps 694 mmHg 80%
    06:00 +11°C° 0 mm 1 mps 694 mmHg 76%
    07:00 +12°C° 0 mm 1 mps 694 mmHg 72%
    08:00 +15°C° 0 mm 1 mps 694 mmHg 63%
    09:00 +18°C° 0 mm 1 mps 695 mmHg 53%
    10:00 +21°C° 0 mm 1 mps 695 mmHg 44%
    11:00 +22°C° 0 mm 1 mps 695 mmHg 41%
    12:00 +23°C° 0 mm 1 mps 695 mmHg 38%
    13:00 +24°C° 0 mm 1 mps 695 mmHg 35%
    14:00 +24°C° 0 mm 1 mps 694 mmHg 35%
    15:00 +23°C° 0 mm 1 mps 694 mmHg 36%
    16:00 +23°C° 0 mm 1 mps 694 mmHg 37%
    17:00 +20°C° 0 mm 1 mps 694 mmHg 47%
    18:00 +18°C° 0 mm 1 mps 693 mmHg 56%
    19:00 +15°C° 0 mm 1 mps 693 mmHg 66%
    20:00 +14°C° 0 mm 1 mps 693 mmHg 69%
    21:00 +13°C° 0 mm 1 mps 694 mmHg 71%
    22:00 +11°C° 0 mm 1 mps 694 mmHg 74%
    23:00 +11°C° 0 mm 1 mps 694 mmHg 75%

    Day after tomorrow, 22 August, Tuesday

    Time Temperature Precipitation Wind Pressure Humidity
    00:00 +11°C° 0 mm 1 mps 694 mmHg 76%
    01:00 +10°C° 0 mm 1 mps 694 mmHg 77%
    02:00 +10°C° 0 mm 1 mps 694 mmHg 79%
    03:00 +10°C° 0 mm 1 mps 693 mmHg 80%
    04:00 +9°C° 0 mm 1 mps 693 mmHg 81%
    05:00 +11°C° 0 mm 1 mps 693 mmHg 77%
    06:00 +11°C° 0 mm 0 mps 694 mmHg 73%
    07:00 +12°C° 0 mm 0 mps 694 mmHg 70%
    08:00 +15°C° 0 mm 0 mps 694 mmHg 62%
    09:00 +19°C° 0 mm 1 mps 695 mmHg 54%
    10:00 +22°C° 0 mm 1 mps 695 mmHg 46%
    11:00 +23°C° 0 mm 1 mps 695 mmHg 44%
    12:00 +24°C° 0 mm 1 mps 694 mmHg 43%
    13:00 +25°C° 0 mm 1 mps 694 mmHg 41%
    14:00 +24°C° 0 mm 1 mps 694 mmHg 43%
    15:00 +24°C° 0 mm 1 mps 693 mmHg 45%
    16:00 +24°C° 0 mm 1 mps 693 mmHg 47%
    17:00 +21°C° 0 mm 1 mps 692 mmHg 57%
    18:00 +19°C° 0 mm 1 mps 692 mmHg 67%
    19:00 +16°C° 0 mm 1 mps 691 mmHg 76%
    20:00 +15°C° 0 mm 1 mps 691 mmHg 79%
    21:00 +13°C° 0 mm 0 mps 692 mmHg 83%
    22:00 +12°C° 0 mm 0 mps 692 mmHg 86%
    23:00 +13°C° 0 mm 1 mps 692 mmHg 87%

    23 August, Wednesday

    Time Temperature Precipitation Wind Pressure Humidity
    00:00 +13°C° 0 mm 1 mps 692 mmHg 88%
    01:00 +12°C° 0 mm 1 mps 691 mmHg 89%
    02:00 +12°C° 0 mm 1 mps 691 mmHg 89%
    03:00 +12°C° 0 mm 1 mps 691 mmHg 90%
    04:00 +11°C° 0 mm 1 mps 691 mmHg 90%
    05:00 +12°C° 0 mm 1 mps 692 mmHg 86%
    06:00 +14°C° 0 mm 1 mps 692 mmHg 82%
    07:00 +15°C° 0 mm 1 mps 692 mmHg 78%
    08:00 +18°C° 0 mm 1 mps 693 mmHg 69%
    09:00 +20°C° 0 mm 1 mps 693 mmHg 60%
    10:00 +23°C° 0 mm 1 mps 694 mmHg 51%
    11:00 +24°C° 0 mm 1 mps 694 mmHg 49%
    12:00 +25°C° 0 mm 1 mps 694 mmHg 46%
    13:00 +26°C° 0 mm 1 mps 694 mmHg 44%
    14:00 +25°C° 0 mm 1 mps 694 mmHg 45%
    15:00 +25°C° 0 mm 1 mps 693 mmHg 46%
    16:00 +25°C° 0 mm 1 mps 693 mmHg 47%
    17:00 +23°C° 0 mm 1 mps 693 mmHg 57%
    18:00 +20°C° 0 mm 1 mps 692 mmHg 67%
    19:00 +18°C° 0 mm 1 mps 692 mmHg 77%
    20:00 +16°C° 0 mm 1 mps 692 mmHg 80%
    21:00 +15°C° 0 mm 1 mps 692 mmHg 82%
    22:00 +15°C° 0 mm 1 mps 693 mmHg 85%
    23:00 +14°C° 0 mm 1 mps 692 mmHg 86%

    24 August, Thursday

    Time Temperature Precipitation Wind Pressure Humidity
    00:00 +14°C° 0 mm 1 mps 692 mmHg 87%
    01:00 +14°C° 0 mm 1 mps 692 mmHg 88%
    02:00 +13°C° 0 mm 1 mps 692 mmHg 88%
    03:00 +13°C° 0 mm 1 mps 692 mmHg 89%
    04:00 +12°C° 0 mm 0 mps 692 mmHg 89%
    05:00 +13°C° 0 mm 0 mps 692 mmHg 85%
    06:00 +15°C° 0 mm 0 mps 693 mmHg 81%
    07:00 +16°C° 0 mm 0 mps 693 mmHg 78%
    08:00 +19°C° 0 mm 0 mps 693 mmHg 67%
    09:00 +23°C° 0 mm 1 mps 694 mmHg 57%
    10:00 +26°C° 0 mm 1 mps 695 mmHg 47%
    11:00 +27°C° 0 mm 1 mps 694 mmHg 45%
    12:00 +28°C° 0 mm 1 mps 694 mmHg 42%
    13:00 +28°C° 0 mm 2 mps 694 mmHg 40%
    14:00 +28°C° 0 mm 2 mps 694 mmHg 42%
    15:00 +27°C° 0 mm 2 mps 694 mmHg 45%
    16:00 +27°C° 0 mm 2 mps 693 mmHg 48%
    17:00 +24°C° 0 mm 1 mps 693 mmHg 57%
    18:00 +22°C° 0 mm 1 mps 693 mmHg 66%
    19:00 +20°C° 0 mm 1 mps 692 mmHg 75%
    20:00 +19°C° 0 mm 1 mps 692 mmHg 78%
    21:00 +18°C° 0 mm 1 mps 692 mmHg 81%
    22:00 +18°C° 0 mm 1 mps 692 mmHg 83%
    23:00 +16°C° 0 mm 1 mps 692 mmHg 85%

    25 August, Friday

    Time Temperature Precipitation Wind Pressure Humidity
    00:00 +16°C° 0 mm 1 mps 692 mmHg 86%
    01:00 +15°C° 0 mm 1 mps 692 mmHg 87%
    02:00 +15°C° 0 mm 1 mps 692 mmHg 87%
    03:00 +15°C° 0 mm 1 mps 692 mmHg 87%
    04:00 +15°C° 0 mm 1 mps 692 mmHg 87%
    05:00 +16°C° 0 mm 1 mps 692 mmHg 84%
    06:00 +16°C° 0 mm 0 mps 693 mmHg 80%
    07:00 +17°C° 0 mm 0 mps 693 mmHg 77%
    08:00 +20°C° 0 mm 0 mps 693 mmHg 67%
    09:00 +24°C° 0 mm 1 mps 694 mmHg 58%
    10:00 +27°C° 0 mm 1 mps 694 mmHg 48%
    11:00 +28°C° 0.1 mm 1 mps 694 mmHg 46%
    12:00 +28°C° 0.1 mm 1 mps 694 mmHg 45%
    13:00 +29°C° 0.1 mm 2 mps 694 mmHg 43%
    14:00 +29°C° 0.1 mm 2 mps 693 mmHg 43%
    15:00 +28°C° 0.1 mm 2 mps 693 mmHg 44%
    16:00 +28°C° 0.1 mm 2 mps 693 mmHg 45%
    17:00 +25°C° 0 mm 2 mps 692 mmHg 54%
    18:00 +23°C° 0 mm 1 mps 692 mmHg 64%
    19:00 +21°C° 0 mm 1 mps 691 mmHg 73%
    20:00 +20°C° 0 mm 1 mps 691 mmHg 76%
    21:00 +19°C° 0 mm 1 mps 691 mmHg 79%
    22:00 +18°C° 0 mm 1 mps 691 mmHg 82%
    23:00 +16°C° 0 mm 1 mps 691 mmHg 83%
    Show more